TimeCDT,TemperatureF,Dew PointF,Humidity,Sea Level PressureIn,VisibilityMPH,Wind Direction,Wind SpeedMPH,Gust SpeedMPH,PrecipitationIn,Events,Conditions,WindDirDegrees,DateUTC
12:52 AM,89.1,62.1,40,29.90,10.0,SSE,6.9,-,N/A,,Clear,150,2013-06-27 05:52:00
1:52 AM,87.1,63.0,44,29.89,10.0,SSE,9.2,-,N/A,,Clear,160,2013-06-27 06:52:00
2:52 AM,84.9,63.0,48,29.90,10.0,South,10.4,-,N/A,,Clear,170,2013-06-27 07:52:00
3:52 AM,84.0,64.0,51,29.91,10.0,South,10.4,-,N/A,,Clear,170,2013-06-27 08:52:00
4:52 AM,82.9,64.9,54,29.92,10.0,South,10.4,-,N/A,,Clear,180,2013-06-27 09:52:00
5:52 AM,81.0,66.0,60,29.95,10.0,South,12.7,-,N/A,,Clear,180,2013-06-27 10:52:00
6:52 AM,80.1,66.9,64,29.97,10.0,South,8.1,-,N/A,,Partly Cloudy,170,2013-06-27 11:52:00
7:52 AM,82.0,68.0,62,30.01,10.0,South,9.2,-,N/A,,Partly Cloudy,180,2013-06-27 12:52:00
8:52 AM,84.0,69.1,61,30.01,10.0,South,12.7,-,N/A,,Partly Cloudy,180,2013-06-27 13:52:00
9:52 AM,89.1,68.0,50,30.01,10.0,SSW,11.5,-,N/A,,Partly Cloudy,200,2013-06-27 14:52:00
10:52 AM,91.9,66.9,44,29.99,10.0,SSW,9.2,17.3,N/A,,Scattered Clouds,200,2013-06-27 15:52:00
11:52 AM,96.1,66.9,38,29.98,10.0,South,6.9,-,N/A,,Scattered Clouds,180,2013-06-27 16:52:00
12:52 PM,98.1,66.9,36,29.97,10.0,South,5.8,-,N/A,,Partly Cloudy,170,2013-06-27 17:52:00
1:52 PM,100.0,66.0,33,29.95,10.0,South,9.2,-,N/A,,Clear,180,2013-06-27 18:52:00
2:52 PM,102.0,64.9,30,29.93,10.0,SSE,5.8,-,N/A,,Partly Cloudy,160,2013-06-27 19:52:00
3:52 PM,102.0,62.1,27,29.92,10.0,East,4.6,-,N/A,,Scattered Clouds,90,2013-06-27 20:52:00
4:52 PM,102.9,61.0,25,29.90,10.0,Variable,3.5,-,N/A,,Scattered Clouds,0,2013-06-27 21:52:00
5:52 PM,102.0,62.1,27,29.88,10.0,East,3.5,-,N/A,,Scattered Clouds,100,2013-06-27 22:52:00
6:52 PM,100.0,61.0,28,29.88,10.0,South,8.1,-,N/A,,Scattered Clouds,170,2013-06-27 23:52:00
7:52 PM,99.0,62.1,30,29.87,10.0,SE,11.5,-,N/A,,Scattered Clouds,130,2013-06-28 00:52:00
8:52 PM,96.1,62.1,32,29.87,10.0,SSE,9.2,-,N/A,,Partly Cloudy,150,2013-06-28 01:52:00
9:52 PM,93.9,61.0,33,29.90,10.0,SSE,9.2,-,N/A,,Partly Cloudy,150,2013-06-28 02:52:00
10:52 PM,93.0,61.0,34,29.95,10.0,ESE,3.5,-,N/A,,Partly Cloudy,120,2013-06-28 03:52:00
11:52 PM,89.1,61.0,39,29.94,10.0,SE,3.5,-,N/A,,Clear,140,2013-06-28 04:52:00